Total_Precipitation_Accumulation
0.00 0.00 0.00 0.00 0.00 0.00 0.00 0.00 0.00 0.00 0.00 0.00 0.00 0.00 0.00 0.00 0.00 0.00 0.00 0.00 0.00 0.00 0.00 0.00 0.00 0.00 0.00 0.00 0.00 0.00 0.01 0.06 0.03 0.10 0.21 0.04 0.09 0.07 0.03 0.11 0.10 0.17 0.18 0.06 0.02 0.02 0.02 0.01 0.01 0.01 0.00 0.00 0.00 0.00 0.00 0.00 0.00 0.00 0.00 0.00 0.00 0.00 0.00 0.00 0.00 0.00 0.00 0.00 0.00 0.00 0.00 0.00 0.00 0.00 0.00 0.01 0.01 0.01 0.01 0.03 0.03 0.05 0.09 0.05 0.05 0.04 0.02 0.03 0.02 0.01 0.01 0.00 0.00 0.00 0.00 0.00 0.00
0.00 0.00 0.00 0.00 0.00 0.00 0.00 0.00 0.00 0.00 0.00 0.00 0.00 0.00 0.00 0.00 0.00 0.00 0.00 0.00 0.00 0.00 0.00 0.00 0.00 0.00 0.00 0.00 0.00 0.00 0.00 0.01 0.00 0.02 0.13 0.11 0.07 0.04 0.15 0.38 0.66 0.47 0.21 0.10 0.07 0.04 0.03 0.02 0.02 0.01 0.01 0.01 0.00 0.00 0.00 0.00 0.00 0.00 0.00 0.00 0.00 0.00 0.00 0.00 0.00 0.00 0.00 0.00 0.00 0.00 0.00 0.00 0.00 0.01 0.01 0.00 0.00 0.01 0.01 0.03 0.04 0.05 0.06 0.04 0.03 0.03 0.02 0.03 0.01 0.01 0.01 0.00 0.00 0.01 0.01 0.00 0.01
0.00 0.00 0.00 0.00 0.00 0.00 0.00 0.00 0.00 0.00 0.00 0.00 0.00 0.00 0.00 0.00 0.00 0.00 0.00 0.00 0.00 0.00 0.00 0.00 0.00 0.00 0.00 0.00 0.00 0.03 0.43 0.02 0.01 0.02 0.10 0.08 0.06 0.26 0.11 0.26 0.60 0.61 0.52 0.18 0.11 0.03 0.03 0.03 0.01 0.02 0.02 0.01 0.00 0.01 0.01 0.00 0.00 0.00 0.00 0.00 0.00 0.00 0.00 0.00 0.00 0.00 0.00 0.00 0.00 0.00 0.00 0.01 0.01 0.00 0.00 0.00 0.01 0.01 0.02 0.03 0.06 0.05 0.03 0.03 0.02 0.02 0.03 0.05 0.03 0.01 0.00 0.01 0.00 0.01 0.01 0.01 0.01
0.00 0.00 0.00 0.00 0.00 0.00 0.00 0.00 0.00 0.00 0.00 0.00 0.00 0.00 0.00 0.00 0.00 0.00 0.00 0.00 0.00 0.00 0.00 0.00 0.01 0.00 0.00 0.00 0.03 0.00 0.03 0.05 0.02 0.02 0.09 0.09 0.13 0.12 0.16 0.50 0.68 0.25 0.15 0.11 0.16 0.04 0.02 0.03 0.01 0.02 0.02 0.02 0.01 0.01 0.02 0.00 0.00 0.00 0.01 0.00 0.00 0.00 0.00 0.00 0.00 0.00 0.00 0.00 0.00 0.00 0.00 0.00 0.00 0.00 0.01 0.04 0.01 0.01 0.03 0.02 0.03 0.05 0.01 0.01 0.04 0.03 0.03 0.04 0.04 0.03 0.00 0.00 0.00 0.00 0.01 0.03 0.02
0.00 0.00 0.00 0.00 0.00 0.00 0.00 0.00 0.00 0.00 0.00 0.00 0.00 0.00 0.00 0.00 0.00 0.00 0.00 0.00 0.00 0.00 0.00 0.00 0.01 0.00 0.00 0.01 0.00 0.02 0.07 0.02 0.04 0.03 0.05 0.06 0.13 0.17 0.20 0.36 0.39 0.15 0.15 0.11 0.10 0.04 0.07 0.05 0.03 0.01 0.01 0.03 0.02 0.02 0.01 0.02 0.01 0.01 0.01 0.00 0.00 0.00 0.00 0.00 0.00 0.00 0.00 0.00 0.00 0.01 0.00 0.00 0.01 0.04 0.04 0.03 0.02 0.01 0.00 0.02 0.01 0.03 0.01 0.01 0.01 0.00 0.01 0.01 0.01 0.00 0.01 0.01 0.00 0.01 0.02 0.01 0.02
0.00 0.00 0.00 0.00 0.00 0.00 0.00 0.00 0.00 0.00 0.00 0.00 0.00 0.00 0.00 0.00 0.00 0.00 0.00 0.00 0.00 0.00 0.00 0.00 0.01 0.01 0.00 0.14 0.05 0.06 0.08 0.14 0.04 0.05 0.04 0.13 0.36 0.31 0.26 0.44 0.38 0.10 0.10 0.14 0.10 0.05 0.07 0.01 0.01 0.01 0.01 0.01 0.02 0.02 0.02 0.02 0.01 0.01 0.01 0.01 0.00 0.00 0.00 0.00 0.00 0.00 0.00 0.00 0.01 0.00 0.00 0.01 0.01 0.05 0.03 0.03 0.00 0.00 0.01 0.03 0.02 0.02 0.03 0.02 0.00 0.00 0.00 0.00 0.01 0.01 0.00 0.00 0.01 0.02 0.01 0.00 0.00
0.00 0.00 0.00 0.00 0.00 0.00 0.00 0.00 0.00 0.00 0.00 0.00 0.00 0.00 0.00 0.00 0.00 0.00 0.00 0.00 0.00 0.00 0.00 0.00 0.00 0.00 0.05 0.01 0.00 0.05 0.08 0.02 0.06 0.03 0.06 0.10 0.29 0.56 0.72 0.85 0.42 0.11 0.13 0.08 0.12 0.09 0.07 0.02 0.02 0.01 0.01 0.01 0.02 0.03 0.02 0.02 0.02 0.01 0.01 0.01 0.00 0.00 0.00 0.00 0.00 0.00 0.00 0.00 0.00 0.00 0.01 0.02 0.03 0.02 0.06 0.07 0.03 0.10 0.03 0.02 0.03 0.08 0.06 0.01 0.00 0.00 0.00 0.00 0.00 0.00 0.01 0.01 0.01 0.00 0.00 0.00 0.00
0.00 0.00 0.00 0.00 0.00 0.00 0.00 0.00 0.00 0.00 0.00 0.00 0.00 0.00 0.00 0.00 0.00 0.00 0.00 0.00 0.00 0.00 0.00 0.00 0.00 0.00 0.46 0.02 0.20 0.03 0.03 0.02 0.04 0.01 0.03 0.20 0.44 0.30 0.60 1.08 0.81 0.13 0.11 0.12 0.09 0.06 0.24 0.08 0.09 0.10 0.01 0.01 0.03 0.03 0.02 0.02 0.02 0.02 0.01 0.00 0.01 0.01 0.01 0.00 0.00 0.00 0.01 0.01 0.01 0.01 0.01 0.01 0.01 0.04 0.02 0.07 0.07 0.03 0.08 0.01 0.04 0.05 0.05 0.04 0.00 0.00 0.00 0.00 0.00 0.00 0.01 0.01 0.03 0.01 0.00 0.00 0.00
0.00 0.00 0.00 0.00 0.00 0.00 0.00 0.00 0.00 0.00 0.00 0.00 0.00 0.00 0.00 0.00 0.00 0.00 0.00 0.00 0.00 0.00 0.00 0.00 0.00 0.13 0.04 0.07 0.09 0.05 0.06 0.04 0.03 0.02 0.04 0.17 0.16 0.28 0.78 0.69 0.28 0.10 0.18 0.21 0.19 0.15 0.14 0.12 0.29 0.24 0.12 0.14 0.46 0.04 0.02 0.02 0.02 0.02 0.02 0.01 0.01 0.00 0.00 0.01 0.00 0.01 0.03 0.02 0.02 0.03 0.05 0.03 0.01 0.02 0.03 0.09 0.02 0.03 0.06 0.05 0.02 0.03 0.02 0.00 0.00 0.00 0.00 0.01 0.01 0.01 0.01 0.01 0.02 0.00 0.00 0.00 0.00
0.00 0.00 0.00 0.00 0.00 0.00 0.00 0.00 0.00 0.00 0.00 0.00 0.00 0.00 0.00 0.00 0.00 0.00 0.00 0.00 0.00 0.00 0.00 0.00 0.00 0.02 0.03 0.17 0.13 0.13 0.13 0.09 0.01 0.04 0.11 0.10 0.38 0.55 0.26 0.29 0.18 0.16 0.20 0.21 0.25 0.26 0.17 0.21 0.24 0.41 0.26 0.22 0.16 0.02 0.04 0.02 0.01 0.01 0.01 0.00 0.00 0.00 0.01 0.01 0.01 0.01 0.03 0.02 0.01 0.01 0.01 0.01 0.02 0.01 0.01 0.05 0.01 0.03 0.07 0.06 0.01 0.01 0.02 0.01 0.02 0.01 0.02 0.06 0.02 0.02 0.01 0.01 0.01 0.01 0.00 0.00 0.00
0.00 0.00 0.00 0.00 0.00 0.00 0.00 0.00 0.00 0.00 0.00 0.00 0.00 0.00 0.00 0.00 0.00 0.00 0.00 0.00 0.00 0.00 0.00 0.00 0.00 0.02 0.01 0.14 0.24 0.16 0.04 0.08 0.04 0.06 0.10 0.28 0.48 0.14 0.20 0.19 0.16 0.20 0.50 0.56 0.31 0.26 0.27 0.31 0.22 0.40 0.29 0.20 0.03 0.05 0.04 0.01 0.02 0.00 0.00 0.00 0.00 0.00 0.01 0.00 0.01 0.01 0.02 0.02 0.01 0.01 0.01 0.00 0.01 0.02 0.01 0.05 0.02 0.01 0.06 0.05 0.01 0.02 0.02 0.02 0.01 0.01 0.01 0.02 0.04 0.03 0.01 0.00 0.00 0.00 0.00 0.00 0.00
0.00 0.00 0.00 0.00 0.00 0.00 0.00 0.00 0.00 0.00 0.00 0.00 0.00 0.00 0.00 0.00 0.00 0.00 0.00 0.00 0.00 0.00 0.01 0.00 0.01 0.00 0.07 0.09 0.15 0.26 0.14 0.07 0.06 0.08 0.21 0.36 0.41 0.25 0.20 0.25 0.56 0.24 0.19 0.21 0.23 0.29 0.25 0.30 0.27 0.35 0.37 0.64 0.08 0.04 0.04 0.03 0.02 0.01 0.01 0.02 0.00 0.01 0.00 0.00 0.00 0.01 0.01 0.01 0.01 0.00 0.01 0.01 0.01 0.01 0.01 0.04 0.01 0.01 0.05 0.05 0.07 0.04 0.03 0.03 0.01 0.00 0.00 0.00 0.00 0.02 0.03 0.00 0.00 0.00 0.00 0.00 0.00
0.00 0.00 0.00 0.00 0.00 0.00 0.00 0.00 0.00 0.00 0.00 0.00 0.00 0.00 0.00 0.00 0.00 0.00 0.00 0.00 0.00 0.00 0.00 0.00 0.00 0.00 0.40 0.14 0.15 0.23 0.11 0.13 0.05 0.21 0.28 0.28 0.40 0.54 0.28 0.37 0.31 0.26 0.44 0.53 0.33 0.32 0.47 0.28 0.39 0.43 0.51 0.43 0.40 0.13 0.06 0.07 0.05 0.05 0.03 0.04 0.05 0.03 0.03 0.01 0.01 0.01 0.04 0.05 0.01 0.00 0.00 0.00 0.01 0.01 0.01 0.02 0.01 0.03 0.07 0.05 0.05 0.02 0.02 0.02 0.00 0.00 0.00 0.01 0.01 0.01 0.04 0.08 0.00 0.00 0.00 0.00 0.00
0.00 0.00 0.00 0.00 0.00 0.00 0.00 0.00 0.00 0.00 0.00 0.00 0.00 0.00 0.00 0.00 0.00 0.00 0.00 0.00 0.00 0.00 0.00 0.00 0.00 0.04 0.29 0.14 0.25 0.17 0.16 0.13 0.06 0.16 0.10 0.15 0.30 0.54 1.06 0.64 0.55 1.08 0.46 0.58 0.45 0.61 0.43 0.27 0.25 0.30 0.44 0.57 0.58 0.51 0.16 0.09 0.04 0.04 0.02 0.04 0.00 0.01 0.02 0.02 0.01 0.02 0.08 0.02 0.02 0.01 0.00 0.00 0.00 0.00 0.00 0.00 0.00 0.01 0.01 0.02 0.01 0.02 0.05 0.00 0.00 0.00 0.00 0.00 0.01 0.02 0.02 0.04 0.00 0.00 0.00 0.00 0.00
0.00 0.00 0.00 0.00 0.00 0.00 0.00 0.00 0.00 0.00 0.00 0.00 0.00 0.00 0.00 0.00 0.00 0.00 0.00 0.00 0.00 0.00 0.00 0.00 0.00 0.05 1.83 0.12 0.18 0.09 0.11 0.10 0.08 0.06 0.10 0.11 0.10 0.39 0.63 0.70 1.41 0.55 0.42 0.50 0.49 0.35 0.25 0.34 0.37 0.40 0.64 0.68 1.23 1.23 0.78 0.32 0.09 0.08 0.02 0.06 0.02 0.03 0.05 0.05 0.04 0.01 0.05 0.13 0.02 0.01 0.01 0.01 0.01 0.01 0.00 0.00 0.00 0.00 0.01 0.00 0.00 0.01 0.01 0.00 0.00 0.00 0.00 0.00 0.00 0.00 0.00 0.01 0.00 0.00 0.00 0.00 0.00
0.00 0.00 0.00 0.00 0.00 0.00 0.00 0.00 0.00 0.00 0.00 0.00 0.00 0.00 0.00 0.00 0.00 0.00 0.00 0.00 0.00 0.00 0.00 0.07 0.00 0.08 0.08 0.01 0.09 0.05 0.07 0.11 0.09 0.06 0.07 0.10 0.18 0.56 0.64 0.96 0.56 0.35 0.47 0.98 0.57 0.45 0.41 0.49 0.55 0.69 0.59 0.76 1.24 0.97 1.05 1.12 0.69 0.53 0.25 0.05 0.11 0.06 0.12 0.06 0.06 0.04 0.07 0.04 0.04 0.04 0.05 0.06 0.07 0.03 0.05 0.06 0.05 0.01 0.00 0.02 0.00 0.00 0.01 0.00 0.00 0.00 0.00 0.00 0.00 0.00 0.00 0.00 0.00 0.00 0.00 0.00 0.00
0.00 0.00 0.00 0.00 0.00 0.00 0.00 0.00 0.00 0.00 0.00 0.00 0.00 0.00 0.00 0.00 0.00 0.00 0.00 0.00 0.00 0.00 0.00 0.01 0.05 0.00 0.04 0.02 0.06 0.01 0.07 0.05 0.06 0.13 0.05 0.09 0.24 0.38 0.50 0.59 0.36 0.32 0.35 0.25 0.43 0.41 0.45 0.84 0.97 1.09 1.17 1.80 0.68 0.87 1.07 0.75 0.50 0.85 0.69 0.39 0.16 0.07 0.08 0.06 0.07 0.03 0.23 0.08 0.08 0.06 0.06 0.12 0.23 0.14 0.06 0.15 0.07 0.14 0.01 0.00 0.00 0.00 0.00 0.00 0.01 0.01 0.00 0.00 0.01 0.00 0.00 0.00 0.00 0.00 0.00 0.00 0.00
0.00 0.00 0.00 0.00 0.00 0.00 0.00 0.00 0.00 0.00 0.00 0.00 0.00 0.00 0.00 0.00 0.00 0.00 0.00 0.00 0.00 0.01 0.00 0.00 0.01 0.08 0.08 0.04 0.10 0.07 0.06 0.09 0.11 0.09 0.10 0.08 0.25 0.39 0.46 0.40 0.28 0.17 0.28 0.19 0.23 0.31 0.60 1.14 1.96 0.91 1.42 0.78 0.71 0.87 0.86 0.40 0.99 0.75 0.87 0.42 0.53 0.37 0.25 0.14 0.05 0.11 0.24 0.38 0.22 0.06 0.27 0.46 0.41 0.13 0.18 0.20 0.14 0.05 0.06 0.00 0.00 0.00 0.00 0.00 0.00 0.00 0.01 0.01 0.00 0.00 0.00 0.00 0.00 0.00 0.00 0.00 0.00
0.00 0.00 0.00 0.00 0.00 0.00 0.00 0.00 0.00 0.00 0.00 0.00 0.00 0.00 0.00 0.00 0.00 0.00 0.02 0.00 0.00 0.01 0.02 0.04 0.05 0.06 0.11 0.10 0.06 0.09 0.07 0.05 0.15 0.25 0.12 0.29 0.23 0.39 0.28 0.62 0.39 0.26 0.26 0.58 0.33 0.46 0.60 0.82 1.13 1.34 0.90 0.54 0.92 0.67 1.02 1.00 0.93 0.91 1.01 1.02 0.66 0.26 0.29 0.13 0.09 0.23 0.26 0.38 0.33 0.43 0.54 0.56 0.61 0.37 0.49 0.14 0.15 0.02 0.08 0.01 0.00 0.00 0.00 0.00 0.00 0.00 0.01 0.00 0.00 0.01 0.02 0.00 0.00 0.00 0.00 0.00 0.00
0.00 0.00 0.00 0.00 0.00 0.00 0.00 0.00 0.00 0.00 0.00 0.00 0.00 0.00 0.00 0.00 0.00 0.00 0.03 0.01 0.00 0.00 0.01 0.03 0.12 0.12 0.08 0.07 0.08 0.10 0.11 0.13 0.15 0.09 0.28 0.48 0.48 0.34 0.65 0.49 0.49 0.34 0.49 0.46 0.64 0.45 0.44 0.25 0.86 1.14 0.70 0.45 0.73 0.90 1.20 0.65 0.86 1.34 0.69 0.87 0.58 0.72 0.33 0.13 0.17 0.28 0.46 0.55 0.77 0.76 0.92 0.63 0.71 0.54 0.40 0.19 0.14 0.16 0.11 0.01 0.00 0.00 0.00 0.00 0.00 0.02 0.02 0.00 0.01 0.02 0.02 0.01 0.00 0.00 0.00 0.00 0.00
0.00 0.00 0.00 0.00 0.00 0.00 0.00 0.00 0.00 0.00 0.00 0.00 0.00 0.00 0.00 0.00 0.00 0.00 0.00 0.03 0.02 0.01 0.02 0.06 0.09 0.10 0.10 0.10 0.07 0.09 0.29 0.20 0.24 0.36 0.43 0.40 0.49 0.80 0.63 0.34 0.49 0.94 1.11 1.30 0.71 0.43 0.41 0.74 0.63 0.71 0.49 0.56 0.42 0.87 0.90 0.58 0.72 0.70 1.49 0.80 0.77 0.67 0.62 0.54 0.43 0.49 0.77 0.74 0.56 1.00 0.89 0.79 0.82 0.51 0.41 0.21 0.14 0.15 0.16 0.13 0.22 0.08 0.09 0.11 0.01 0.07 0.18 0.49 0.11 0.14 0.03 0.00 0.01 0.00 0.00 0.00 0.00
0.00 0.00 0.00 0.00 0.00 0.00 0.00 0.00 0.00 0.00 0.00 0.00 0.00 0.00 0.00 0.00 0.00 0.00 0.00 0.02 0.12 0.07 0.07 0.01 0.02 0.18 0.11 0.06 0.06 0.24 0.29 0.33 0.23 0.38 0.63 0.76 0.56 0.36 0.49 0.41 0.47 0.81 0.35 0.50 0.52 0.34 0.34 0.22 0.23 0.54 0.51 0.51 0.26 0.43 0.54 0.71 0.86 0.84 0.85 1.15 1.20 0.92 0.87 0.70 0.52 0.64 0.71 0.61 0.71 1.20 0.90 1.18 0.83 0.67 0.64 0.50 0.40 0.35 0.36 0.29 0.23 0.38 0.10 0.07 0.05 0.07 0.19 0.45 0.22 0.18 0.05 0.04 0.01 0.00 0.00 0.00 0.00
0.00 0.00 0.00 0.00 0.00 0.00 0.00 0.00 0.00 0.00 0.00 0.00 0.00 0.00 0.00 0.00 0.00 0.00 0.00 0.00 0.04 0.02 0.06 0.04 0.01 0.05 0.10 0.09 0.24 0.37 0.64 0.33 0.25 0.53 0.59 0.71 0.50 0.37 0.33 0.59 0.71 0.79 0.55 0.49 0.25 0.45 0.28 0.46 0.35 0.40 0.97 0.58 0.56 0.46 0.72 0.71 0.80 0.64 0.94 1.09 0.99 0.80 1.39 0.72 0.42 0.71 0.69 0.35 0.66 0.82 1.08 1.03 1.15 0.70 0.96 0.56 0.35 0.20 0.51 0.44 0.43 0.42 0.32 0.38 0.14 0.26 0.40 0.14 0.09 0.21 0.14 0.03 0.02 0.00 0.01 0.00 0.00
0.00 0.00 0.00 0.00 0.00 0.00 0.00 0.00 0.00 0.00 0.00 0.00 0.00 0.00 0.00 0.00 0.00 0.00 0.00 0.00 0.00 0.03 0.05 0.02 0.07 0.06 0.07 0.09 0.25 0.26 0.33 0.15 0.48 0.43 0.34 0.57 0.25 0.48 0.58 0.74 0.55 0.66 0.35 0.26 0.48 0.32 0.51 0.40 0.34 0.61 0.41 0.37 0.30 0.26 0.60 0.34 0.69 1.01 0.81 0.93 1.01 0.96 0.76 0.74 0.89 0.42 0.45 0.47 0.75 0.64 0.71 0.86 0.62 0.60 0.58 0.33 0.26 0.26 0.77 0.59 0.68 0.91 0.98 0.62 0.35 0.74 0.68 0.19 0.14 0.14 0.09 0.01 0.01 0.01 0.00 0.01 0.01
0.00 0.00 0.00 0.00 0.00 0.00 0.00 0.00 0.00 0.00 0.00 0.00 0.00 0.00 0.00 0.00 0.00 0.00 0.00 0.00 0.00 0.02 0.02 0.00 0.02 0.03 0.07 0.05 0.22 0.36 0.36 0.43 0.57 0.30 0.44 0.45 0.22 0.23 0.47 0.54 0.59 0.31 0.47 0.21 0.20 0.25 0.37 0.22 0.58 0.56 0.28 0.32 0.30 0.32 0.30 0.57 0.74 1.08 1.25 0.92 0.47 0.62 0.90 0.86 0.58 0.47 0.46 0.62 0.46 0.67 0.45 0.68 0.65 0.82 0.62 0.64 0.20 0.31 0.75 0.34 0.51 0.72 0.77 0.51 0.47 0.44 0.52 0.61 0.45 0.25 0.07 0.05 0.01 0.01 0.02 0.02 0.01
0.00 0.00 0.00 0.00 0.00 0.00 0.00 0.00 0.00 0.00 0.00 0.00 0.00 0.00 0.00 0.00 0.00 0.00 0.00 0.00 0.00 0.00 0.00 0.02 0.04 0.03 0.08 0.09 0.14 0.11 0.22 0.42 0.30 0.20 0.28 0.45 0.28 0.36 0.43 0.88 0.58 0.32 0.24 0.34 0.14 0.24 0.23 0.18 0.19 0.19 0.22 0.23 0.21 0.13 0.43 0.44 0.51 0.48 0.47 0.53 0.47 0.75 0.72 0.66 0.45 0.25 0.24 0.66 0.63 0.65 0.94 0.67 0.47 0.60 0.45 0.32 0.15 0.31 0.41 0.23 0.23 0.41 0.49 0.50 0.35 0.30 1.01 0.69 0.37 0.16 0.15 0.05 0.02 0.01 0.02 0.00 0.01
0.00 0.00 0.00 0.00 0.00 0.00 0.00 0.00 0.00 0.00 0.00 0.00 0.00 0.00 0.00 0.00 0.00 0.00 0.00 0.00 0.00 0.00 0.00 0.04 0.02 0.06 0.02 0.06 0.13 0.22 0.16 0.25 0.33 0.24 0.33 0.32 0.78 0.59 0.30 0.40 0.29 0.27 0.14 0.15 0.16 0.28 0.22 0.32 0.24 0.30 0.25 0.09 0.27 0.14 0.36 0.37 0.20 0.31 0.23 0.36 0.59 0.47 0.75 0.50 0.40 0.38 0.61 0.82 0.99 0.77 0.48 0.46 0.59 0.60 0.53 0.32 0.22 0.20 0.49 0.47 0.35 0.30 0.38 0.37 0.49 0.55 0.53 0.52 0.41 0.32 0.26 0.06 0.03 0.02 0.02 0.01 0.01
0.00 0.00 0.00 0.00 0.00 0.00 0.00 0.00 0.00 0.00 0.00 0.00 0.00 0.00 0.00 0.00 0.00 0.00 0.00 0.00 0.00 0.00 0.01 0.01 0.02 0.03 0.07 0.10 0.08 0.27 0.26 0.33 0.30 0.20 0.33 0.46 1.05 0.84 0.52 0.61 0.28 0.27 0.25 0.56 0.28 0.29 0.23 0.27 0.24 0.08 0.25 0.11 0.15 0.26 0.25 0.34 0.26 0.25 0.17 0.52 0.45 0.46 0.30 0.68 0.46 0.50 0.63 0.39 0.52 0.31 0.24 0.55 0.63 0.60 0.62 0.57 0.43 0.33 0.58 0.65 0.36 0.29 0.35 0.43 0.47 0.83 0.74 0.39 0.35 0.22 0.19 0.05 0.08 0.17 0.13 0.01 0.02
0.00 0.00 0.00 0.00 0.00 0.00 0.00 0.00 0.00 0.00 0.00 0.00 0.00 0.00 0.00 0.00 0.00 0.00 0.00 0.00 0.00 0.00 0.04 0.01 0.01 0.02 0.05 0.08 0.12 0.20 0.20 0.44 0.37 0.32 0.49 1.21 1.02 0.72 0.53 0.51 0.39 0.35 0.40 0.52 0.10 0.41 0.14 0.31 0.19 0.09 0.34 0.30 0.11 0.19 0.30 0.22 0.18 0.35 0.42 0.42 0.26 0.10 0.26 0.33 0.48 0.51 0.28 0.36 0.72 0.29 0.54 1.16 1.05 0.75 0.42 0.37 0.38 0.38 0.28 0.45 0.35 0.47 0.33 0.59 0.51 0.46 0.30 0.28 0.24 0.07 0.04 0.04 0.20 0.24 0.08 0.03 0.02
0.00 0.00 0.00 0.00 0.00 0.00 0.00 0.00 0.00 0.00 0.00 0.00 0.00 0.00 0.00 0.00 0.00 0.00 0.00 0.01 0.01 0.01 0.01 0.02 0.02 0.04 0.02 0.03 0.13 0.15 0.18 0.57 0.46 0.66 0.77 1.09 0.63 0.63 0.44 0.45 0.47 0.38 0.41 0.30 0.37 0.44 0.22 0.29 0.22 0.12 0.26 0.56 0.35 0.20 0.17 0.18 0.29 0.41 0.30 0.34 0.12 0.15 0.18 0.33 0.34 0.32 0.23 0.30 0.49 0.36 0.51 1.20 0.91 0.56 0.87 0.96 0.55 0.58 0.46 0.44 0.61 0.41 0.40 0.73 0.64 0.40 0.69 0.32 0.20 0.27 0.07 0.05 0.23 0.18 0.25 0.04 0.02
0.00 0.00 0.00 0.00 0.00 0.00 0.00 0.00 0.00 0.00 0.00 0.00 0.00 0.00 0.00 0.00 0.00 0.00 0.01 0.00 0.00 0.00 0.01 0.01 0.04 0.06 0.06 0.07 0.19 0.14 0.09 0.16 0.51 0.48 0.27 0.26 0.35 0.43 0.46 0.48 0.41 0.41 0.13 0.22 0.14 0.12 0.16 0.21 0.26 0.17 0.17 0.62 0.30 0.16 0.07 0.41 0.38 0.09 0.20 0.41 0.19 0.14 0.20 0.22 0.19 0.33 0.38 0.25 0.15 0.45 0.58 0.93 0.57 0.87 0.64 0.35 0.56 0.22 0.22 0.50 0.74 0.52 0.59 0.52 0.83 0.73 0.47 0.45 0.45 0.35 0.17 0.19 0.19 0.49 0.41 0.24 0.10
0.00 0.00 0.00 0.00 0.00 0.00 0.00 0.00 0.00 0.00 0.00 0.00 0.00 0.00 0.00 0.00 0.00 0.00 0.00 0.01 0.00 0.00 0.01 0.02 0.04 0.10 0.09 0.18 0.14 0.10 0.12 0.16 0.19 0.06 0.08 0.10 0.06 0.07 0.04 0.08 0.10 0.05 0.11 0.07 0.16 0.19 0.17 0.14 0.17 0.17 0.31 0.43 0.27 0.11 0.06 0.39 0.32 0.10 0.12 0.24 0.15 0.25 0.24 0.09 0.11 0.25 0.26 0.30 0.24 0.37 0.27 0.22 0.56 0.40 0.45 0.85 0.40 0.20 0.24 0.43 0.66 0.70 0.33 0.49 0.86 0.73 0.43 0.68 0.53 0.78 0.66 0.39 0.13 0.58 0.46 0.46 0.32
0.00 0.00 0.00 0.00 0.00 0.00 0.00 0.00 0.00 0.00 0.00 0.00 0.00 0.00 0.00 0.00 0.00 0.00 0.01 0.00 0.00 0.00 0.01 0.01 0.02 0.05 0.31 0.17 0.09 0.09 0.06 0.08 0.03 0.04 0.04 0.04 0.03 0.02 0.02 0.01 0.01 0.06 0.08 0.15 0.25 0.29 0.26 0.26 0.18 0.70 0.43 0.27 0.19 0.30 0.13 0.14 0.43 0.20 0.30 0.38 0.12 0.15 0.28 0.18 0.08 0.07 0.09 0.13 0.11 0.17 0.17 0.26 0.15 0.26 0.37 0.43 0.17 0.24 0.14 0.19 0.49 0.83 0.56 0.37 0.47 0.45 0.50 0.41 0.72 0.48 0.45 0.43 0.53 0.53 0.66 0.51 0.77
0.00 0.00 0.00 0.00 0.00 0.00 0.00 0.00 0.00 0.00 0.00 0.00 0.00 0.00 0.00 0.00 0.00 0.00 0.01 0.01 0.01 0.00 0.01 0.01 0.01 0.02 0.11 0.14 0.13 0.14 0.09 0.09 0.03 0.02 0.04 0.04 0.02 0.01 0.01 0.01 0.09 0.08 0.19 0.32 0.27 0.35 0.17 0.18 0.58 0.80 0.94 0.19 0.17 0.13 0.12 0.36 0.46 0.33 0.43 0.15 0.05 0.10 0.04 0.06 0.05 0.04 0.07 0.07 0.06 0.08 0.11 0.15 0.25 0.21 0.12 0.31 0.46 0.34 0.16 0.17 0.35 1.49 0.91 0.44 0.34 0.35 0.45 0.39 0.69 0.49 0.43 0.45 0.53 0.60 0.47 0.41 0.59
0.00 0.00 0.00 0.00 0.00 0.00 0.00 0.00 0.00 0.00 0.00 0.00 0.00 0.00 0.00 0.00 0.00 0.00 0.00 0.01 0.01 0.01 0.01 0.01 0.01 0.03 0.07 0.04 0.10 0.12 0.08 0.07 0.07 0.03 0.03 0.03 0.03 0.02 0.02 0.17 0.55 0.40 0.40 0.46 0.28 0.12 0.18 0.30 0.53 0.89 0.29 0.18 0.22 0.18 0.11 0.10 0.20 0.17 0.07 0.03 0.02 0.01 0.01 0.01 0.01 0.01 0.02 0.06 0.03 0.06 0.06 0.08 0.06 0.17 0.07 0.07 0.10 0.11 0.27 0.27 0.34 0.45 0.61 0.50 0.55 0.64 1.07 0.53 0.58 0.42 0.36 0.31 0.39 0.43 0.17 0.44 0.30
0.00 0.00 0.00 0.00 0.00 0.00 0.00 0.00 0.00 0.00 0.00 0.00 0.00 0.00 0.00 0.00 0.00 0.00 0.01 0.01 0.01 0.00 0.00 0.01 0.01 0.02 0.04 0.02 0.09 0.11 0.08 0.07 0.06 0.04 0.03 0.04 0.04 0.09 0.15 0.68 0.50 0.98 1.21 0.84 0.47 0.21 0.18 0.29 0.26 0.26 0.37 0.18 0.25 0.25 0.11 0.11 0.07 0.08 0.02 0.01 0.00 0.00 0.01 0.00 0.00 0.01 0.01 0.02 0.03 0.03 0.04 0.05 0.03 0.03 0.05 0.04 0.07 0.14 0.20 0.30 0.25 0.22 0.78 0.83 0.96 0.66 0.56 0.55 0.71 0.69 0.29 0.30 0.43 0.35 0.25 0.49 0.34
0.00 0.00 0.00 0.00 0.00 0.00 0.00 0.00 0.00 0.00 0.00 0.00 0.00 0.00 0.00 0.00 0.00 0.00 0.00 0.01 0.01 0.00 0.01 0.01 0.02 0.02 0.04 0.02 0.04 0.01 0.05 0.05 0.03 0.03 0.02 0.07 0.31 0.41 0.60 0.90 1.04 1.02 0.42 0.74 0.78 0.75 0.36 0.85 0.06 0.08 0.15 0.14 0.23 0.15 0.13 0.06 0.03 0.01 0.01 0.01 0.00 0.00 0.00 0.00 0.00 0.00 0.00 0.01 0.01 0.01 0.01 0.02 0.04 0.04 0.06 0.23 0.18 0.05 0.07 0.15 0.20 0.31 0.29 0.25 0.61 0.73 0.80 0.73 1.22 0.77 0.75 0.61 0.47 0.35 0.35 0.27 0.52
0.00 0.00 0.00 0.00 0.00 0.00 0.00 0.00 0.00 0.00 0.00 0.00 0.00 0.00 0.00 0.00 0.00 0.00 0.00 0.00 0.01 0.00 0.01 0.01 0.01 0.01 0.02 0.01 0.05 0.01 0.05 0.07 0.05 0.14 0.50 0.87 0.77 0.93 1.46 1.34 0.61 0.47 1.22 1.02 0.87 0.68 0.92 0.31 0.15 0.13 0.08 0.09 0.11 0.13 0.06 0.04 0.01 0.00 0.01 0.00 0.00 0.00 0.00 0.00 0.00 0.00 0.00 0.00 0.00 0.00 0.00 0.01 0.01 0.03 0.04 0.04 0.07 0.09 0.05 0.08 0.12 0.18 0.24 0.14 0.21 0.27 0.25 0.64 0.64 0.38 0.55 0.59 0.45 0.42 0.44 0.29 0.35
0.00 0.00 0.00 0.00 0.00 0.00 0.00 0.00 0.00 0.00 0.00 0.00 0.00 0.00 0.00 0.00 0.00 0.00 0.00 0.00 0.00 0.01 0.00 0.00 0.00 0.01 0.02 0.04 0.13 0.26 0.07 0.05 0.08 0.08 0.25 0.54 1.14 1.28 1.37 1.25 0.71 0.92 1.32 0.74 0.80 0.58 0.33 0.36 0.26 0.49 0.21 0.14 0.13 0.07 0.12 0.06 0.01 0.02 0.06 0.01 0.00 0.00 0.01 0.00 0.00 0.00 0.00 0.00 0.00 0.00 0.00 0.00 0.01 0.01 0.02 0.04 0.02 0.05 0.07 0.03 0.09 0.09 0.13 0.20 0.14 0.18 0.20 0.40 0.46 0.41 0.28 0.23 0.45 0.42 0.44 0.62 0.65
0.00 0.00 0.00 0.00 0.00 0.00 0.02 0.00 0.00 0.00 0.00 0.00 0.00 0.00 0.00 0.00 0.00 0.00 0.01 0.01 0.00 0.00 0.01 0.00 0.00 0.01 0.01 0.05 0.13 0.04 0.02 0.03 0.08 0.08 0.08 0.24 0.73 0.70 0.50 0.78 1.02 1.13 0.83 1.50 0.69 0.94 0.48 0.39 0.12 0.22 0.29 0.18 0.16 0.20 0.01 0.04 0.00 0.07 0.04 0.00 0.00 0.00 0.00 0.00 0.00 0.00 0.00 0.00 0.00 0.00 0.00 0.00 0.00 0.01 0.00 0.00 0.01 0.04 0.08 0.09 0.04 0.03 0.06 0.07 0.09 0.12 0.08 0.08 0.16 0.19 0.19 0.22 0.59 0.54 0.12 0.33 0.95
0.00 0.00 0.00 0.00 0.00 0.00 0.00 0.02 0.00 0.00 0.00 0.00 0.00 0.00 0.00 0.00 0.00 0.00 0.01 0.00 0.00 0.00 0.01 0.01 0.00 0.00 0.01 0.08 0.15 0.04 0.02 0.04 0.07 0.06 0.05 0.19 0.74 0.74 0.72 1.17 1.40 1.23 1.23 0.93 1.10 0.84 1.05 0.58 0.14 0.13 0.24 0.23 0.20 0.10 0.11 0.05 0.05 0.12 0.21 0.04 0.00 0.00 0.00 0.00 0.00 0.00 0.00 0.00 0.00 0.00 0.00 0.00 0.00 0.00 0.00 0.00 0.01 0.00 0.01 0.02 0.06 0.06 0.07 0.05 0.04 0.07 0.05 0.05 0.08 0.10 0.26 0.40 0.10 0.20 0.46 1.32 1.02
0.00 0.00 0.00 0.00 0.00 0.00 0.00 0.00 0.00 0.00 0.01 0.00 0.00 0.00 0.01 0.00 0.00 0.00 0.00 0.00 0.00 0.00 0.00 0.00 0.00 0.00 0.01 0.04 0.02 0.04 0.03 0.03 0.07 0.05 0.03 0.26 0.52 0.54 0.88 1.41 1.17 1.13 0.89 0.90 1.18 0.83 0.72 0.50 0.25 0.14 0.15 0.14 0.07 0.14 0.19 0.15 0.24 0.23 0.08 0.00 0.00 0.00 0.00 0.00 0.00 0.00 0.00 0.00 0.00 0.00 0.00 0.00 0.00 0.00 0.00 0.00 0.00 0.00 0.00 0.00 0.00 0.01 0.03 0.07 0.03 0.04 0.07 0.02 0.02 0.04 0.11 0.28 0.18 0.17 0.15 0.67 0.51
0.00 0.01 0.00 0.00 0.00 0.00 0.00 0.00 0.00 0.01 0.01 0.04 0.00 0.01 0.02 0.00 0.00 0.00 0.00 0.00 0.00 0.00 0.00 0.00 0.00 0.00 0.00 0.03 0.11 0.05 0.04 0.01 0.05 0.15 0.08 0.44 0.99 0.91 1.15 1.10 0.62 0.85 0.73 0.91 0.85 0.96 0.89 0.48 0.19 0.23 0.10 0.11 0.16 0.21 0.11 0.16 0.27 0.16 0.01 0.00 0.01 0.00 0.00 0.00 0.00 0.00 0.00 0.00 0.00 0.00 0.00 0.00 0.00 0.00 0.00 0.00 0.00 0.00 0.01 0.00 0.01 0.01 0.01 0.01 0.01 0.06 0.05 0.04 0.04 0.07 0.08 0.08 0.06 0.17 0.16 0.36 0.65
0.01 0.01 0.00 0.00 0.00 0.00 0.00 0.00 0.00 0.02 0.00 0.00 0.00 0.00 0.02 0.01 0.01 0.00 0.00 0.00 0.00 0.00 0.00 0.00 0.00 0.01 0.03 0.09 0.55 0.12 0.03 0.00 0.03 0.06 0.10 0.38 0.40 0.61 1.00 0.54 1.17 0.77 1.29 1.08 0.96 1.10 1.29 0.73 0.36 0.21 0.13 0.12 0.18 0.07 0.29 0.15 0.22 0.06 0.02 0.02 0.01 0.00 0.00 0.00 0.00 0.00 0.00 0.00 0.00 0.00 0.00 0.00 0.00 0.00 0.00 0.00 0.00 0.00 0.00 0.00 0.00 0.01 0.01 0.01 0.01 0.02 0.04 0.05 0.04 0.03 0.04 0.04 0.05 0.06 0.09 0.12 0.35
0.00 0.00 0.00 0.00 0.00 0.00 0.00 0.01 0.01 0.02 0.01 0.03 0.00 0.00 0.00 0.01 0.02 0.01 0.00 0.01 0.00 0.01 0.01 0.01 0.00 0.00 0.01 0.15 0.06 0.03 0.03 0.03 0.07 0.11 0.24 0.66 0.56 0.44 0.70 1.16 1.09 1.54 1.20 1.16 1.14 1.12 1.35 0.99 0.74 0.63 0.58 0.26 0.24 0.32 0.28 0.46 0.13 0.11 0.14 0.04 0.17 0.00 0.00 0.00 0.00 0.00 0.00 0.00 0.00 0.00 0.00 0.00 0.00 0.00 0.00 0.00 0.00 0.00 0.00 0.00 0.00 0.01 0.01 0.01 0.01 0.03 0.04 0.03 0.05 0.04 0.03 0.02 0.02 0.02 0.04 0.07 0.09
0.00 0.00 0.00 0.00 0.00 0.00 0.00 0.02 0.00 0.08 0.00 0.02 0.04 0.06 0.01 0.04 0.01 0.00 0.00 0.00 0.01 0.03 0.04 0.05 0.03 0.04 0.10 0.08 0.07 0.03 0.04 0.04 0.17 0.26 0.03 0.16 0.42 0.57 0.60 1.09 1.59 1.16 1.17 1.38 1.00 1.33 1.52 1.15 1.01 0.44 0.27 0.76 0.65 0.51 0.43 0.40 0.14 0.28 0.22 0.06 0.08 0.00 0.00 0.00 0.00 0.00 0.00 0.00 0.00 0.00 0.00 0.00 0.00 0.00 0.00 0.00 0.00 0.00 0.00 0.00 0.01 0.01 0.01 0.01 0.01 0.01 0.02 0.04 0.04 0.06 0.03 0.03 0.03 0.02 0.03 0.03 0.04
0.00 0.00 0.00 0.00 0.00 0.00 0.01 0.01 0.01 0.05 0.01 0.01 0.00 0.03 0.00 0.04 0.02 0.02 0.01 0.02 0.01 0.01 0.00 0.02 0.03 0.05 0.05 0.22 0.07 0.02 0.04 0.04 0.04 0.03 0.11 0.21 0.55 0.81 0.83 0.60 0.55 0.46 0.98 0.98 1.10 1.12 0.52 0.85 0.79 0.68 0.55 0.51 0.62 0.72 0.42 0.30 0.24 0.38 0.16 0.06 0.03 0.00 0.00 0.00 0.00 0.00 0.00 0.00 0.00 0.00 0.00 0.00 0.00 0.00 0.00 0.00 0.00 0.00 0.00 0.00 0.00 0.02 0.02 0.00 0.01 0.01 0.01 0.02 0.04 0.03 0.05 0.05 0.04 0.04 0.05 0.04 0.08
0.00 0.00 0.01 0.00 0.03 0.02 0.01 0.02 0.01 0.07 0.00 0.01 0.02 0.01 0.01 0.06 0.07 0.01 0.01 0.00 0.00 0.00 0.00 0.02 0.04 0.02 0.02 0.04 0.07 0.04 0.05 0.05 0.08 0.13 0.08 0.14 0.70 0.46 0.28 0.35 0.93 0.55 0.31 0.17 0.35 0.41 0.51 0.85 0.76 0.67 0.58 0.80 0.88 0.73 0.34 0.21 0.19 0.22 0.08 0.03 0.01 0.00 0.00 0.00 0.00 0.00 0.00 0.00 0.00 0.00 0.00 0.00 0.00 0.00 0.00 0.00 0.00 0.00 0.00 0.00 0.00 0.01 0.01 0.01 0.01 0.00 0.00 0.00 0.01 0.02 0.03 0.03 0.03 0.04 0.04 0.03 0.02
0.00 0.00 0.01 0.17 0.12 0.01 0.06 0.02 0.02 0.00 0.01 0.03 0.00 0.00 0.02 0.01 0.05 0.03 0.01 0.00 0.00 0.00 0.01 0.02 0.01 0.01 0.00 0.08 0.05 0.07 0.05 0.04 0.06 0.25 0.20 0.22 0.28 0.34 0.09 0.27 0.37 0.37 0.27 0.10 0.21 0.51 0.49 0.82 1.12 0.80 0.61 0.45 0.54 0.72 0.68 0.28 0.15 0.08 0.07 0.03 0.01 0.01 0.01 0.00 0.00 0.00 0.00 0.00 0.00 0.00 0.00 0.00 0.00 0.00 0.00 0.00 0.00 0.00 0.00 0.00 0.00 0.01 0.01 0.01 0.00 0.00 0.00 0.00 0.00 0.00 0.03 0.04 0.03 0.02 0.06 0.03 0.05
0.00 0.01 0.09 0.05 0.09 0.04 0.01 0.04 0.01 0.04 0.01 0.01 0.01 0.02 0.03 0.08 0.02 0.01 0.04 0.01 0.00 0.01 0.02 0.01 0.01 0.02 0.02 0.00 0.02 0.07 0.06 0.06 0.06 0.07 0.12 0.14 0.27 0.23 0.15 0.22 0.10 0.32 0.42 0.41 0.35 0.67 0.88 0.95 1.04 0.54 0.44 0.37 0.71 0.75 0.39 0.25 0.17 0.10 0.04 0.01 0.02 0.01 0.01 0.00 0.00 0.00 0.00 0.01 0.00 0.00 0.00 0.00 0.00 0.00 0.00 0.00 0.00 0.00 0.00 0.00 0.00 0.01 0.00 0.00 0.00 0.00 0.00 0.00 0.00 0.00 0.01 0.01 0.03 0.03 0.04 0.03 0.04
0.00 0.00 0.01 0.07 0.06 0.04 0.01 0.03 0.04 0.00 0.07 0.02 0.00 0.00 0.02 0.02 0.46 0.00 0.00 0.01 0.01 0.01 0.01 0.00 0.00 0.00 0.00 0.02 0.03 0.07 0.31 0.18 0.03 0.06 0.03 0.06 0.15 0.13 0.42 0.26 0.20 0.34 0.41 0.25 0.44 0.49 1.51 0.92 0.97 0.65 0.61 0.38 0.52 0.64 0.42 0.28 0.14 0.11 0.02 0.01 0.04 0.02 0.00 0.00 0.00 0.01 0.03 0.01 0.01 0.00 0.00 0.00 0.00 0.00 0.00 0.00 0.00 0.00 0.00 0.00 0.00 0.00 0.00 0.00 0.00 0.00 0.00 0.00 0.00 0.00 0.00 0.00 0.00 0.00 0.01 0.02 0.03
0.00 0.01 0.01 0.03 0.04 0.01 0.04 0.20 0.02 0.00 0.03 0.01 0.04 0.00 0.06 0.18 0.04 0.01 0.02 0.00 0.00 0.00 0.01 0.01 0.01 0.01 0.01 0.02 0.07 0.04 0.18 0.29 0.10 0.05 0.13 0.12 0.13 0.41 0.26 0.47 0.59 0.53 0.51 0.49 0.45 0.44 1.34 1.29 1.26 1.28 0.78 0.81 0.50 0.18 0.18 0.53 0.42 0.31 0.15 0.09 0.04 0.03 0.02 0.01 0.01 0.00 0.00 0.00 0.00 0.00 0.00 0.00 0.00 0.00 0.00 0.00 0.00 0.00 0.00 0.00 0.00 0.00 0.00 0.00 0.00 0.00 0.00 0.00 0.00 0.00 0.00 0.00 0.00 0.00 0.00 0.00 0.00
0.07 0.00 0.05 0.01 0.01 0.00 0.01 0.00 0.00 0.00 0.00 0.01 0.01 0.01 0.01 0.01 0.01 0.01 0.01 0.04 0.02 0.00 0.00 0.00 0.01 0.02 0.03 0.02 0.03 0.03 0.03 0.15 0.26 0.35 0.33 0.19 0.43 0.63 0.73 0.63 0.33 0.18 0.30 0.44 0.50 0.84 2.15 1.35 0.57 0.89 0.85 1.31 0.64 0.24 0.41 0.29 0.72 0.14 0.10 0.05 0.04 0.03 0.02 0.03 0.03 0.00 0.01 0.02 0.00 0.00 0.00 0.00 0.00 0.00 0.00 0.00 0.00 0.00 0.00 0.00 0.00 0.00 0.00 0.00 0.00 0.00 0.00 0.00 0.00 0.00 0.00 0.00 0.00 0.00 0.00 0.00 0.00
0.00 0.02 0.03 0.00 0.00 0.03 0.01 0.07 0.07 0.00 0.00 0.02 0.01 0.01 0.10 0.04 0.16 0.00 0.07 0.04 0.01 0.03 0.01 0.01 0.04 0.07 0.08 0.05 0.03 0.04 0.05 0.11 0.15 0.31 0.71 0.74 0.64 0.68 0.38 0.47 0.32 0.26 0.32 0.55 0.42 0.49 0.55 0.44 0.54 0.97 1.23 0.88 1.04 1.28 0.87 0.73 0.31 0.28 0.26 0.08 0.15 0.09 0.03 0.03 0.00 0.02 0.04 0.00 0.02 0.02 0.00 0.00 0.00 0.00 0.00 0.00 0.00 0.00 0.00 0.00 0.00 0.00 0.00 0.00 0.00 0.00 0.00 0.00 0.00 0.00 0.00 0.00 0.00 0.00 0.00 0.00 0.00
0.00 0.06 0.01 0.01 0.07 0.03 0.01 0.00 0.01 0.03 0.02 0.03 0.01 0.08 0.05 0.02 0.14 0.03 0.06 0.02 0.07 0.02 0.11 0.11 0.08 0.06 0.06 0.09 0.04 0.10 0.05 0.07 0.28 0.43 0.54 0.45 0.18 0.48 0.47 0.33 0.46 0.31 0.64 0.53 0.24 0.13 0.25 0.26 0.39 0.24 0.20 0.45 1.33 1.55 0.75 0.58 0.30 0.28 0.21 0.45 0.29 0.13 0.05 0.05 0.04 0.04 0.04 0.05 0.04 0.01 0.00 0.00 0.00 0.00 0.00 0.00 0.00 0.00 0.00 0.00 0.00 0.00 0.00 0.00 0.00 0.00 0.00 0.00 0.00 0.00 0.00 0.00 0.00 0.00 0.00 0.00 0.00
0.00 0.00 0.00 0.00 0.00 0.04 0.04 0.01 0.03 0.01 0.11 0.01 0.02 0.02 0.08 0.06 0.20 0.05 0.06 0.06 0.05 0.06 0.01 0.05 0.02 0.04 0.04 0.05 0.07 0.14 0.17 0.15 0.19 0.13 0.20 0.34 0.20 0.14 0.20 0.25 0.53 0.40 0.48 0.48 0.31 0.63 0.46 0.08 0.09 0.42 0.15 0.13 1.03 0.65 0.48 0.28 0.46 0.49 0.50 0.16 0.21 0.16 0.10 0.07 0.02 0.04 0.06 0.01 0.00 0.00 0.00 0.00 0.00 0.00 0.00 0.00 0.00 0.00 0.00 0.00 0.00 0.00 0.00 0.00 0.00 0.00 0.00 0.00 0.00 0.00 0.00 0.00 0.00 0.00 0.00 0.00 0.00
0.00 0.00 0.00 0.00 0.01 0.04 0.00 0.06 0.01 0.03 0.05 0.08 0.08 0.05 0.16 0.06 0.01 0.05 0.07 0.04 0.07 0.07 0.05 0.08 0.08 0.16 0.08 0.07 0.14 0.08 0.13 0.06 0.06 0.11 0.18 0.39 0.24 0.12 0.11 0.17 0.11 0.21 0.22 0.21 0.47 0.30 0.08 0.05 0.13 0.13 0.09 0.08 0.24 0.81 0.20 0.18 0.30 0.70 0.25 0.22 0.11 0.08 0.07 0.03 0.04 0.04 0.01 0.03 0.03 0.00 0.00 0.00 0.00 0.00 0.00 0.00 0.00 0.00 0.00 0.00 0.00 0.00 0.00 0.00 0.00 0.00 0.00 0.00 0.00 0.00 0.00 0.00 0.00 0.00 0.00 0.00 0.00
0.00 0.00 0.03 0.01 0.05 0.10 0.05 0.04 0.00 0.07 0.01 0.03 0.04 0.10 0.12 0.30 0.00 0.01 0.11 0.08 0.10 0.09 0.06 0.04 0.16 0.04 0.08 0.14 0.15 0.06 0.03 0.03 0.02 0.10 0.27 0.57 0.84 1.09 1.17 0.41 0.75 1.41 1.54 1.06 0.36 0.10 0.11 0.08 0.10 0.11 0.05 0.08 0.06 0.10 0.08 0.34 0.61 0.55 0.13 0.08 0.05 0.03 0.05 0.03 0.01 0.06 0.04 0.08 0.02 0.00 0.01 0.00 0.00 0.00 0.01 0.00 0.00 0.00 0.00 0.00 0.00 0.00 0.00 0.00 0.00 0.00 0.00 0.00 0.00 0.00 0.00 0.00 0.00 0.00 0.00 0.00 0.00